Location: Foxtrotter Observatory
(29.3381°N, 82.2844°W)
Time: 13:38:17
(UTC-05:00)

Amateur Radio Satellites - All Passes

Search period start: 22 November 2017 13:08
Search period end: 23 November 2017 13:08
Location: Foxtrotter Observatory, 29.3381°N, 82.2844°W

Satellite Date Start Highest point End Downlink Frequencies (MHz)
Time Altitude Azimuth
Gurwin Techsat 1B 22 Nov 13:08:22 13:13:19 42° 73° (ENE) 13:18:18 435.225
VELOX 1 22 Nov 13:14:16 13:18:44 87° 283° (WNW) 13:23:10 145.980
50 SAT 22 Nov 13:36:41 13:39:33 30° 99° (E) 13:42:25 437.505
FALCONSAT 3 22 Nov 13:51:42 13:55:23 72° 20° (NNE) 13:59:04 435.103
DX 1 22 Nov 13:55:29 13:59:47 53° 101° (E) 14:04:01 434.975-435.025
BEESAT 2 22 Nov 14:02:48 14:05:24 17° 251° (WSW) 14:07:59 435.950
SPROUT 22 Nov 14:03:16 14:05:08 13° 291° (WNW) 14:06:59 437.525
AO-85 22 Nov 14:04:04 14:08:53 59° 246° (WSW) 14:14:00 145.980
AO-7 22 Nov 14:04:21 14:11:10 30° 63° (ENE) 14:17:58 .
JUGNU 22 Nov 14:05:14 14:09:58 25° 169° (S) 14:14:40 437.505
M-CUBED/EXP-1 PRIME 22 Nov 14:10:43 14:14:04 50° 71° (ENE) 14:17:41 437.505
Oscar 19 22 Nov 14:12:22 14:16:40 27° 262° (W) 14:21:00 437.125/150
ITAMSAT 1 22 Nov 14:29:32 14:33:03 19° 68° (ENE) 14:36:35 435.822/435.867
NO-84 22 Nov 14:34:07 14:37:28 50° 312° (NW) 14:41:08 435.350 FM
UKube-1 22 Nov 14:34:32 14:38:52 84° 285° (WNW) 14:43:09 .
MOZHAYETS 4 22 Nov 14:36:33 14:38:58 14° 95° (E) 14:41:23
Gurwin Techsat 1B 22 Nov 14:49:52 14:53:20 18° 265° (W) 14:56:49 435.225
FALCONSAT 3 22 Nov 15:31:18 15:34:17 23° 212° (SSW) 15:37:16 435.103
YUBILEINY 22 Nov 15:47:41 15:54:01 21° 73° (ENE) 16:00:17 435.215
SRMSAT 22 Nov 15:53:07 15:56:50 17° 163° (SSE) 16:00:34 437.500
JUGNU 22 Nov 15:53:19 15:58:31 33° 179° (S) 16:03:41 437.505
AO-7 22 Nov 15:55:32 16:03:27 50° 257° (WSW) 16:11:27 .
BEESAT 22 Nov 16:02:25 16:07:09 74° 285° (WNW) 16:11:53 436.000
ITAMSAT 1 22 Nov 16:07:15 16:12:08 40° 260° (W) 16:17:03 435.822/435.867
DOVE 4 22 Nov 16:09:13 16:13:27 29° 71° (ENE) 16:17:51 437.250
MOZHAYETS 4 22 Nov 16:11:57 16:16:10 38° 286° (WNW) 16:20:23
ITUPSAT 1 22 Nov 16:13:13 16:17:52 57° 285° (WNW) 16:22:30 437.325
CUBESAT XI-V 22 Nov 16:27:04 16:31:42 59° 100° (E) 16:36:20 437.345
XW-2C 22 Nov 17:14:18 17:17:06 20° 73° (ENE) 17:19:55 145.795 - 145.815
LilacSat-2 22 Nov 17:17:55 17:21:01 25° 74° (ENE) 17:24:08 437.200
RS-15 22 Nov 17:17:58 17:28:36 37° 105° (ESE) 17:39:18 29.354- 29.394
XW-2F 22 Nov 17:23:15 17:26:19 25° 73° (ENE) 17:29:22 145.980 - 146.000
SRMSAT 22 Nov 17:40:27 17:45:30 29° 172° (S) 17:50:33 437.500
JUGNU 22 Nov 17:42:10 17:47:05 28° 189° (S) 17:51:59 437.505
YUBILEINY 22 Nov 17:42:35 17:51:17 64° 268° (W) 17:59:56 435.215
DOVE 4 22 Nov 17:47:01 17:51:00 24° 265° (W) 17:55:09 437.250
KAITUO 1B 22 Nov 17:47:56 17:51:23 41° 76° (ENE) 17:54:52 145.475/437.950
CUTE-I 22 Nov 17:49:52 17:55:05 55° 74° (ENE) 18:00:19 437.470
KKS-1 22 Nov 17:52:24 17:56:50 70° 285° (WNW) 18:01:14 437.445
CUTE 1.7 + AOD 2 22 Nov 17:53:25 17:55:35 14° 70° (ENE) 17:57:45 437.475
XW-2D 22 Nov 18:06:44 18:10:25 62° 259° (W) 18:14:07 145.860 - 145.880
CUBESAT XI-V 22 Nov 18:07:53 18:08:29 10° 293° (WNW) 18:09:05 437.345
HO-68 22 Nov 18:09:53 18:16:28 41° 69° (ENE) 18:23:05 435.675
STARS 22 Nov 18:12:07 18:16:29 70° 102° (ESE) 18:20:48 437.465
SEEDS 22 Nov 18:20:09 18:22:52 17° 71° (ENE) 18:25:36 437.485
XW-2B 22 Nov 18:21:50 18:25:20 39° 261° (W) 18:28:51 145.730 - 145.750
UWE-3 22 Nov 18:25:23 18:25:35 10° 68° (ENE) 18:25:48 435.000/436.395/437.385
NUDT-PHONESAT 22 Nov 18:29:43 18:33:12 45° 260° (W) 18:36:43 437.300
ISS 22 Nov 18:48:27 18:50:18 14° 126° (SE) 18:52:09 437.550
XW-2C 22 Nov 18:48:42 18:51:09 17° 264° (W) 18:53:37 145.795 - 145.815
LilacSat-2 22 Nov 18:53:16 18:55:14 14° 265° (W) 18:57:11 437.200
XW-2F 22 Nov 18:58:27 19:00:21 14° 265° (W) 19:02:15 145.980 - 146.000
AO-73 22 Nov 19:00:50 19:02:13 11° 69° (ENE) 19:03:37 145.935
CUBEBUG 2 22 Nov 19:03:36 19:08:10 63° 77° (ENE) 19:12:38 437.445
Oscar 11 22 Nov 19:15:37 19:16:47 11° 68° (ENE) 19:17:57 .
XW-2A 22 Nov 19:26:26 19:29:40 53° 77° (ENE) 19:32:54 145.665 - 145.685
CUTE 1.7 + AOD 2 22 Nov 19:27:16 19:31:03 33° 262° (W) 19:34:52 437.475
RS-15 22 Nov 19:28:34 19:40:31 56° 302° (WNW) 19:52:33 29.354- 29.394
SRMSAT 22 Nov 19:29:00 19:34:15 33° 182° (S) 19:39:31 437.500
JUGNU 22 Nov 19:32:08 19:35:33 16° 197° (SSW) 19:38:59 437.505
CUTE-I 22 Nov 19:32:53 19:35:20 13° 266° (W) 19:37:47 437.470
nSIGHT-1 22 Nov 19:33:48 19:37:00 80° 133° (SE) 19:40:12 .
STRAND 1 22 Nov 19:37:46 19:42:46 54° 101° (E) 19:47:44 437.568
FO-29 22 Nov 19:38:16 19:42:42 16° 90° (E) 19:46:56 435.910
ZACube-1 22 Nov 19:43:53 19:48:05 48° 75° (ENE) 19:52:11 437.345
SEEDS 22 Nov 19:54:47 19:58:17 26° 263° (W) 20:01:49 437.485
AAUSAT CUBESAT 2 22 Nov 19:55:43 19:59:48 68° 260° (W) 20:03:55 437.432
UWE-3 22 Nov 19:57:10 20:01:33 53° 260° (W) 20:05:50 435.000/436.395/437.385
HO-68 22 Nov 19:58:03 20:04:08 30° 262° (W) 20:10:16 435.675
ISS 22 Nov 20:23:34 20:26:31 31° 318° (NW) 20:29:29 437.550
AO-73 22 Nov 20:33:55 20:38:02 43° 261° (W) 20:42:06 145.935
Oscar 11 22 Nov 20:48:21 20:52:27 45° 261° (W) 20:56:34 .
EO-88 22 Nov 20:52:19 20:53:23 11° 70° (ENE) 20:54:28 145.990 - 145.960
Max Valier Satellite 22 Nov 20:56:17 20:58:59 20° 73° (ENE) 21:01:40 145.860
SO-50 22 Nov 21:15:58 21:20:25 88° 117° (ESE) 21:24:55 436.795
SRMSAT 22 Nov 21:18:15 21:22:58 24° 192° (SSW) 21:27:42 437.500
STRAND 1 22 Nov 21:19:04 21:21:24 13° 294° (WNW) 21:23:45 437.568
FO-29 22 Nov 21:20:33 21:28:18 73° 286° (WNW) 21:35:22 435.910
UNISAT 6 22 Nov 21:43:10 21:47:00 32° 98° (E) 21:50:49 437.425
DELFI C3 22 Nov 21:45:20 21:49:08 48° 260° (W) 21:53:00 145.870
TIGRISAT 22 Nov 21:47:01 21:50:51 32° 98° (E) 21:54:40 435.000
RS-15 22 Nov 21:50:33 21:56:28 14° 328° (NNW) 22:02:21 29.354- 29.394
PRISM 22 Nov 22:10:36 22:13:41 20° 97° (E) 22:16:44 437.425
ESTCUBE 1 22 Nov 22:18:13 22:20:43 15° 69° (ENE) 22:23:14 437.505/2401.250
EO-88 22 Nov 22:23:30 22:26:40 29° 262° (W) 22:29:52 145.990 - 145.960
Max Valier Satellite 22 Nov 22:30:16 22:32:39 16° 264° (W) 22:35:01 145.860
LO-87 22 Nov 22:41:50 22:45:10 36° 75° (ENE) 22:48:30 145.935 - 145.965
NO-84 22 Nov 22:48:38 22:52:53 65° 51° (NE) 22:57:01 435.350 FM
PCSat 22 Nov 23:09:01 23:13:46 32° 108° (ESE) 23:18:33 145.827
SRMSAT 22 Nov 23:09:26 23:11:36 12° 200° (SSW) 23:13:46 437.500
FO-29 22 Nov 23:10:07 23:11:50 11° 302° (WNW) 23:13:31 435.910
AIST 2D 22 Nov 23:13:43 23:16:58 34° 99° (E) 23:20:13 435.315
SPROUT 22 Nov 23:14:18 23:16:26 14° 69° (ENE) 23:18:34 437.525
O/OREOS (USA 219) 22 Nov 23:15:35 23:19:51 40° 69° (ENE) 23:24:03 437.305
UNISAT 6 22 Nov 23:21:02 23:23:22 15° 290° (WNW) 23:25:43 437.425
TIGRISAT 22 Nov 23:24:54 23:27:12 14° 291° (WNW) 23:29:30 435.000
QB50P2 22 Nov 23:24:58 23:27:34 16° 95° (E) 23:30:09 145.880/145.840
PRISM 22 Nov 23:45:33 23:48:47 22° 289° (WNW) 23:52:01 437.425
ESTCUBE 1 22 Nov 23:53:02 23:57:08 36° 261° (W) 00:01:16 437.505/2401.250
VELOX 1 23 Nov 00:05:10 00:09:13 36° 73° (ENE) 00:13:16 145.980
DUCHIFAT 1 23 Nov 00:10:22 00:14:17 40° 99° (E) 00:18:11 145.980
EO-79 23 Nov 00:19:52 00:24:03 77° 102° (ESE) 00:28:13 145.935-145.965
NANOSAT C BR1 23 Nov 00:21:50 00:26:00 70° 101° (E) 00:30:08 145.865
NO-84 23 Nov 00:29:18 00:29:42 10° 242° (WSW) 00:30:05 435.350 FM
POLYITAN 1 23 Nov 00:35:45 00:39:54 66° 284° (WNW) 00:44:02 437.675
DX 1 23 Nov 00:45:28 00:48:44 21° 71° (ENE) 00:52:00 434.975-435.025
SPROUT 23 Nov 00:47:59 00:51:56 36° 261° (W) 00:55:54 437.525
Oscar 19 23 Nov 00:52:02 00:54:53 15° 95° (E) 00:57:44 437.125/150
PCSat 23 Nov 00:52:41 00:57:06 25° 302° (WNW) 01:01:33 145.827
BUGSAT 1 23 Nov 00:55:42 00:59:12 28° 98° (E) 01:02:39 437.445
O/OREOS (USA 219) 23 Nov 00:56:50 00:58:48 13° 261° (W) 01:00:44 437.305
QB50P2 23 Nov 00:59:43 01:03:18 28° 287° (WNW) 01:06:54 145.880/145.840
UKube-1 23 Nov 01:22:42 01:26:37 35° 73° (ENE) 01:30:32 .
50 SAT 23 Nov 01:28:45 01:31:58 86° 258° (WSW) 01:35:12 437.505
Gurwin Techsat 1B 23 Nov 01:31:12 01:35:43 28° 97° (E) 01:40:12 435.225
VELOX 1 23 Nov 01:43:19 01:45:41 14° 265° (W) 01:48:03 145.980
DUCHIFAT 1 23 Nov 01:48:07 01:49:31 11° 291° (WNW) 01:50:54 145.980
BEESAT 2 23 Nov 02:09:48 02:12:46 20° 110° (ESE) 02:15:47 435.950
AO-7 23 Nov 02:16:17 02:18:34 11° 94° (E) 02:20:51 .
DX 1 23 Nov 02:21:10 02:24:42 24° 263° (W) 02:28:17 434.975-435.025
RS-15 23 Nov 02:28:06 02:37:07 24° 44° (NE) 02:45:45 29.354- 29.394
Oscar 19 23 Nov 02:29:24 02:34:20 47° 286° (WNW) 02:39:16 437.125/150
BEESAT 3 23 Nov 02:30:03 02:33:50 44° 299° (WNW) 02:37:41 437.485
BUGSAT 1 23 Nov 02:32:01 02:34:15 15° 290° (WNW) 02:36:27 437.445
AO-85 23 Nov 02:35:37 02:37:01 12° 108° (ESE) 02:38:26 145.980
ISS 23 Nov 02:57:03 02:58:44 13° 36° (NE) 03:00:25 437.550
UKube-1 23 Nov 03:00:24 03:02:40 14° 265° (W) 03:04:55 .
BEESAT 23 Nov 03:02:15 03:06:57 62° 75° (ENE) 03:11:39 436.000
MOZHAYETS 4 23 Nov 03:06:50 03:11:24 87° 254° (WSW) 03:15:59
Gurwin Techsat 1B 23 Nov 03:11:06 03:15:29 27° 290° (WNW) 03:19:52 435.225
ITUPSAT 1 23 Nov 03:13:15 03:18:02 81° 76° (ENE) 03:22:49 437.325
CUBESAT XI-V 23 Nov 03:24:29 03:28:21 27° 72° (ENE) 03:32:14 437.345
M-CUBED/EXP-1 PRIME 23 Nov 03:27:54 03:32:31 72° 288° (WNW) 03:37:07 437.505
nSIGHT-1 23 Nov 03:41:31 03:44:38 50° 44° (NE) 03:47:44 .
BEESAT 2 23 Nov 03:47:06 03:50:18 23° 303° (WNW) 03:53:33 435.950
AO-7 23 Nov 04:03:40 04:12:04 84° 107° (ESE) 04:20:27 .
AO-85 23 Nov 04:13:29 04:16:59 33° 301° (WNW) 04:20:34 145.980
DOVE 4 23 Nov 04:16:23 04:18:26 12° 92° (E) 04:20:28 437.250
ITAMSAT 1 23 Nov 04:26:06 04:31:16 68° 285° (WNW) 04:36:23 435.822/435.867
ISS 23 Nov 04:32:15 04:35:21 42° 230° (SW) 04:38:26 437.550
RS-15 23 Nov 04:39:18 04:51:00 85° 245° (WSW) 05:02:03 29.354- 29.394
YUBILEINY 23 Nov 04:40:20 04:47:33 30° 86° (E) 04:54:49 435.215
KKS-1 23 Nov 04:43:54 04:48:11 47° 74° (ENE) 04:52:29 437.445
CUBESAT XI-V 23 Nov 05:02:16 05:05:37 20° 264° (W) 05:09:00 437.345
STARS 23 Nov 05:02:40 05:06:26 28° 72° (ENE) 05:10:11 437.465
XW-2D 23 Nov 05:45:44 05:48:36 20° 96° (E) 05:51:28 145.860 - 145.880
DOVE 4 23 Nov 05:51:29 05:56:23 50° 286° (WNW) 06:00:59 437.250
SO-50 23 Nov 05:54:14 05:57:04 16° 53° (NE) 05:59:55 436.795
AO-7 23 Nov 05:58:51 06:03:47 17° 302° (WNW) 06:08:45 .
XW-2B 23 Nov 06:00:11 06:03:34 30° 98° (E) 06:06:58 145.730 - 145.750
NUDT-PHONESAT 23 Nov 06:05:57 06:08:58 23° 97° (E) 06:11:58 437.300
CUTE-I 23 Nov 06:13:29 06:18:25 37° 99° (E) 06:23:19 437.470
KKS-1 23 Nov 06:23:42 06:24:53 11° 266° (W) 06:26:03 437.445
XW-2C 23 Nov 06:25:33 06:29:22 75° 101° (E) 06:33:11 145.795 - 145.815
LilacSat-2 23 Nov 06:30:16 06:34:06 84° 284° (WNW) 06:37:58 437.200
XW-2F 23 Nov 06:34:11 06:38:00 88° 282° (WNW) 06:41:49 145.980 - 146.000
YUBILEINY 23 Nov 06:35:39 06:43:54 46° 281° (W) 06:52:15 435.215
STARS 23 Nov 06:39:34 06:42:40 19° 264° (W) 06:45:47 437.465
FALCONSAT 3 23 Nov 06:43:08 06:44:32 12° 144° (SE) 06:45:55 435.103
STRAND 1 23 Nov 06:47:26 06:52:12 40° 73° (ENE) 06:57:00 437.568
RS-15 23 Nov 06:56:28 07:01:31 14° 261° (W) 07:06:30 29.354- 29.394
KAITUO 1B 23 Nov 06:58:21 07:02:02 52° 284° (WNW) 07:05:42 145.475/437.950
CUBEBUG 2 23 Nov 07:01:32 07:04:32 19° 96° (E) 07:07:31 437.445
CUTE 1.7 + AOD 2 23 Nov 07:17:35 07:21:50 64° 100° (E) 07:26:04 437.475
XW-2D 23 Nov 07:19:55 07:22:35 18° 288° (WNW) 07:25:15 145.860 - 145.880
FO-29 23 Nov 07:25:50 07:31:11 27° 66° (ENE) 07:37:02 435.910
HO-68 23 Nov 07:31:15 07:38:27 77° 104° (ESE) 07:45:35 435.675
SO-50 23 Nov 07:33:14 07:37:41 45° 247° (WSW) 07:42:12 436.795
XW-2B 23 Nov 07:35:45 07:37:24 12° 290° (WNW) 07:39:03 145.730 - 145.750
ZACube-1 23 Nov 07:39:32 07:41:49 14° 95° (E) 07:44:08 437.345
NUDT-PHONESAT 23 Nov 07:40:22 07:42:32 15° 289° (WNW) 07:44:43 437.300
SEEDS 23 Nov 07:43:41 07:47:56 79° 102° (ESE) 07:52:11 437.485
AAUSAT CUBESAT 2 23 Nov 07:44:06 07:47:44 28° 97° (E) 07:51:20 437.432
UWE-3 23 Nov 07:52:47 07:56:47 46° 100° (E) 08:00:48 435.000/436.395/437.385
CUTE-I 23 Nov 07:54:16 07:58:08 21° 292° (WNW) 08:01:59 437.470
FALCONSAT 3 23 Nov 08:19:34 08:23:13 66° 155° (SSE) 08:26:52 435.103
XW-2A 23 Nov 08:26:07 08:29:24 52° 284° (WNW) 08:32:42 145.665 - 145.685
AO-73 23 Nov 08:27:32 08:31:36 53° 100° (E) 08:35:43 145.935
STRAND 1 23 Nov 08:28:07 08:31:26 17° 265° (W) 08:34:46 437.568
UNISAT 6 23 Nov 08:36:55 08:39:31 15° 70° (ENE) 08:42:05 437.425
CUBEBUG 2 23 Nov 08:37:48 08:41:02 22° 288° (WNW) 08:44:15 437.445
TIGRISAT 23 Nov 08:40:37 08:43:12 15° 70° (ENE) 08:45:47 435.000
Oscar 11 23 Nov 08:41:24 08:45:37 51° 100° (E) 08:49:50 .
FO-29 23 Nov 09:09:44 09:15:46 43° 263° (W) 09:22:34 435.910
ZACube-1 23 Nov 09:14:25 09:18:05 31° 286° (WNW) 09:21:47 437.345
AAUSAT CUBESAT 2 23 Nov 09:20:16 09:22:53 16° 289° (WNW) 09:25:29 437.432
HO-68 23 Nov 09:21:23 09:25:19 16° 299° (WNW) 09:29:15 435.675
DELFI C3 23 Nov 09:28:16 09:31:49 31° 98° (E) 09:35:20 145.870
PCSat 23 Nov 09:45:32 09:50:57 70° 65° (ENE) 09:56:19 145.827
EO-88 23 Nov 09:57:39 10:00:56 32° 98° (E) 10:04:14 145.990 - 145.960
FALCONSAT 3 23 Nov 09:58:58 10:02:26 38° 349° (N) 10:05:54 435.103
Max Valier Satellite 23 Nov 10:04:29 10:08:08 66° 101° (E) 10:11:47 145.860
UNISAT 6 23 Nov 10:11:36 10:15:52 37° 261° (W) 10:20:02 437.425
TIGRISAT 23 Nov 10:15:18 10:19:32 37° 261° (W) 10:23:44 435.000
PRISM 23 Nov 10:27:12 10:31:18 77° 259° (W) 10:35:27 437.425
BEESAT 3 23 Nov 10:53:36 10:55:43 14° 54° (NE) 10:57:47 437.485
DUCHIFAT 1 23 Nov 10:57:26 10:59:34 14° 69° (ENE) 11:01:41 145.980
DELFI C3 23 Nov 11:04:14 11:06:13 13° 290° (WNW) 11:08:10 145.870
EO-79 23 Nov 11:06:23 11:09:48 24° 72° (ENE) 11:13:13 145.935-145.965
NANOSAT C BR1 23 Nov 11:08:09 11:11:25 22° 72° (ENE) 11:14:41 145.865
AIST 2D 23 Nov 11:14:05 11:17:30 66° 260° (W) 11:20:56 435.315
POLYITAN 1 23 Nov 11:21:49 11:25:44 38° 74° (ENE) 11:29:40 437.675
PCSat 23 Nov 11:33:00 11:33:39 10° 257° (WSW) 11:34:19 145.827
EO-88 23 Nov 11:33:26 11:34:12 10° 290° (WNW) 11:34:57 145.990 - 145.960
FALCONSAT 3 23 Nov 11:38:39 11:41:59 31° 5° (N) 11:45:18 435.103
QB50P2 23 Nov 11:44:58 11:49:13 89° 65° (ENE) 11:53:28 145.880/145.840
LO-87 23 Nov 11:47:26 11:50:56 67° 283° (WNW) 11:54:25 145.935 - 145.965
ESTCUBE 1 23 Nov 11:51:04 11:55:36 75° 101° (E) 12:00:08 437.505/2401.250
JUGNU 23 Nov 12:03:18 12:06:20 14° 162° (SSE) 12:09:21 437.505
VELOX 1 23 Nov 12:03:32 12:04:52 11° 94° (E) 12:06:11 145.980
Oscar 19 23 Nov 12:04:15 12:06:02 12° 66° (ENE) 12:07:48 437.125/150
BEESAT 2 23 Nov 12:09:47 12:13:15 28° 58° (ENE) 12:16:39 435.950
BEESAT 3 23 Nov 12:29:47 12:33:18 33° 248° (WSW) 12:36:45 437.485
DUCHIFAT 1 23 Nov 12:31:00 12:34:51 34° 261° (W) 12:38:43 145.980
SPROUT 23 Nov 12:39:16 12:43:26 58° 101° (E) 12:47:35 437.525
EO-79 23 Nov 12:42:22 12:45:26 19° 264° (W) 12:48:30 145.935-145.965
NANOSAT C BR1 23 Nov 12:43:44 12:46:58 21° 263° (W) 12:50:11 145.865
Gurwin Techsat 1B 23 Nov 12:46:26 12:50:40 25° 70° (ENE) 12:54:54 435.225
AO-85 23 Nov 12:49:09 12:53:33 34° 59° (ENE) 12:58:12 145.980
POLYITAN 1 23 Nov 12:59:53 13:01:34 12° 266° (W) 13:03:16 437.675
